Regional Weather Roundup
Issued by NWS

Home | Current Version | Previous Version | Text Only | Print | Product List | Glossary On
Versions: 1 2 3 4 5 6 7 8 9 10 11 12 13 14 15 16 17 18 19 20 21 22 23 24 25 26 27 28 29 30 31 32 33 34 35 36 37 38 39 40 41 42 43 44 45 46 47 48 49 50
000
ASUS43 KTOP 281608
RWRKS

WEATHER ROUNDUP FOR KANSAS
NATIONAL WEATHER SERVICE GOODLAND KS
1100 AM CDT MON JUL 28 2014

NOTE:  "FAIR" INDICATES FEW OR NO CLOUDS BELOW 12,000 FEET WITH NO
SIGNIFICANT WEATHER AND/OR OBSTRUCTIONS TO VISIBILITY.

KSZ001>006-013>018-027>032-041>047-281700-
NORTHWEST KANSAS

CITY           SKY/WX    TMP DP  RH WIND       PRES   REMARKS
GOODLAND       MOSUNNY   77  59  53 S10       30.34F
HAYS           SUNNY     73  57  56 SE8       30.35S
HILL CITY      SUNNY     75  58  55 SE13      30.34F
RUSSELL        SUNNY     74  56  53 MISG      30.34S
$$

KSZ061>065-074>080-084>089-281700-
SOUTHWEST KANSAS

CITY           SKY/WX    TMP DP  RH WIND       PRES   REMARKS
DODGE CITY     PTSUNNY   76  54  46 SE10      30.34F
ELKHART          N/A     64  55  72 SW10        N/A
GARDEN CITY    CLOUDY    74  60  61 S10       30.33F
GREAT BEND     SUNNY     73  59  60 CALM      30.33F
LIBERAL        CLOUDY    72  57  60 SE15      30.31F
PRATT          MOSUNNY   75  54  46 CALM      30.35S
$$

KSZ066>073-081>083-090>101-281700-
SOUTHEAST KANSAS

CITY           SKY/WX    TMP DP  RH WIND       PRES   REMARKS
CHANUTE        SUNNY     76  60  57 N9        30.26R
COFFEYVILLE    SUNNY     77  61  57 N8        30.24R
HUTCHINSON     MOSUNNY   76  59  55 CALM      30.32S
MEDICINE LODGE   N/A     79  60  52 N3        30.31F
NEWTON         SUNNY     75  55  50 N12       30.34S
PARSONS        SUNNY     78  58  49 N9        30.26R
WICHITA INTL   MOSUNNY   78  58  49 N7        30.30R
WICHITA JABRA  SUNNY     78  59  51 N9        30.29F
WICHITA MCCONL SUNNY     77  58  52 N8        30.30R
WINFIELD       SUNNY     79  62  56 N7        30.29S
$$

KSZ007>012-019>026-033>040-048>060-102>105-281700-
NORTHEAST KANSAS

CITY           SKY/WX    TMP DP  RH WIND       PRES   REMARKS
CONCORDIA      SUNNY     74  58  57 N8        30.32R
EMPORIA        SUNNY     73  57  57 VRB6      30.28R
LAWRENCE       MOSUNNY   76  60  57 NW8       30.24S
MANHATTAN      MOSUNNY   75  57  53 N8        30.29R
MARYSVILLE     SUNNY     72  57  60 N8        30.28F
OLATHE IND     MOSUNNY   75  60  59 NW12      30.24S
OLATHE EXE     SUNNY     73  58  59 N8        30.23R
SALINA         SUNNY     77  55  46 N6        30.32R
TOPEKA BILLARD MOSUNNY   77  58  51 NW15      30.26R
TOPEKA FORBES  SUNNY     76  56  49 N10       30.25S
$$


USA.gov is the U.S. government's official web portal to all federal, state and local government web resources and services.